This is the latest recevied weather packets stored in our database for station/object DB0LS-15. If no packets are shown the sender has not sent any weather packets the latest 10 day(s).
| Time | Temp. | Humidity | Pressure | Rain* | Wind** | Luminosity | Snow |
|---|---|---|---|---|---|---|---|
| 1777984567 | 17.78° C | 83% | 990.3 hPa | 0 mm | - | - | - |
| 1777983963 | 17.78° C | 80% | 990.4 hPa | 0 mm | - | - | - |
| 1777983359 | 17.78° C | 77% | 990.4 hPa | 0 mm | - | - | - |
| 1777982755 | 17.78° C | 78% | 990.5 hPa | 0 mm | - | - | - |
| 1777982151 | 17.78° C | 79% | 990.3 hPa | 0 mm | - | - | - |
| 1777981548 | 17.78° C | 78% | 990.5 hPa | 0 mm | - | - | - |
| 1777980944 | 17.78° C | 80% | 990.5 hPa | 0 mm | - | - | - |
| 1777980340 | 17.22° C | 88% | 990.7 hPa | 0 mm | - | - | - |
| 1777979736 | 16.67° C | 91% | 990.6 hPa | 0 mm | - | - | - |
| 1777979132 | 16.67° C | 90% | 990.8 hPa | 0 mm | - | - | - |
| 1777978528 | 16.67° C | 89% | 990.9 hPa | 0 mm | - | - | - |
| 1777977925 | 16.67° C | 90% | 990.9 hPa | 0 mm | - | - | - |
| 1777977321 | 16.67° C | 91% | 990.9 hPa | 0 mm | - | - | - |
| 1777976717 | 15.56° C | 92% | 991 hPa | 0 mm | - | - | - |
| 1777976173 | 15.56° C | 95% | 991.1 hPa | 0 mm | - | - | - |
| 1777975569 | 15° C | 96% | 991.1 hPa | 0 mm | - | - | - |
| 1777974966 | 15° C | 96% | 991.1 hPa | 0.25 mm | - | - | - |
| 1777974362 | 14.44° C | 96% | 991.2 hPa | 0.25 mm | - | - | - |
| 1777973758 | 14.44° C | 96% | 991.1 hPa | 0.25 mm | - | - | - |
| 1777973154 | 14.44° C | 97% | 991 hPa | 0.25 mm | - | - | - |
| 1777972550 | 14.44° C | 97% | 991.1 hPa | 0.25 mm | - | - | - |
| 1777971947 | 14.44° C | 97% | 991.1 hPa | 0.25 mm | - | - | - |
| 1777971343 | 13.89° C | 97% | 991.1 hPa | 0 mm | - | - | - |
| 1777970739 | 13.89° C | 97% | 990.8 hPa | 0 mm | - | - | - |
| 1777970135 | 14.44° C | 97% | 991.1 hPa | 0.25 mm | - | - | - |
* Rain latest hour (hover to see other rain measurements)
** Current wind speed in m/s (hover to see current wind gust speed)